| time (UTC) | temp F | wind direction | speed knots | gust knots | rain 1hr in | rain 24hr in | rain mn in | humidity % | barometer mb |
| 20260506194522 | 52 | 0.0 | 1.7 | 0.00 | 0.78 | 0.74 | 97 | 1012.6 | |
| 20260506193516 | 53 | 290 | 0.9 | 5.2 | 0.00 | 0.78 | 0.74 | 97 | 1012.5 |
| 20260506192515 | 51 | 270 | 0.0 | 1.7 | 0.00 | 0.78 | 0.74 | 97 | 1012.5 |
| 20260506191517 | 51 | 282 | 0.0 | 1.7 | 0.00 | 0.78 | 0.74 | 97 | 1012.5 |
| 20260506190523 | 50 | 0.0 | 0.0 | 0.00 | 0.78 | 0.74 | 97 | 1012.5 | |
| 20260506185524 | 51 | 0.0 | 0.0 | 0.00 | 0.78 | 0.74 | 97 | 1012.5 | |
| 20260506184516 | 52 | 0.0 | 0.0 | 0.00 | 0.78 | 0.74 | 97 | 1012.5 | |
| 20260506183520 | 53 | 0.0 | 0.0 | 0.00 | 0.78 | 0.74 | 97 | 1012.3 | |
| 20260506182519 | 55 | 0.0 | 0.0 | 0.00 | 0.78 | 0.74 | 97 | 1011.8 | |
| 20260506181518 | 57 | 0.0 | 0.0 | 0.00 | 0.78 | 0.74 | 97 | 1011.5 | |
| 20260506180520 | 59 | 0.0 | 0.0 | 0.00 | 0.78 | 0.74 | 97 | 1011.5 | |
| 20260506175538 | 60 | 0.0 | 0.0 | 0.00 | 0.78 | 0.74 | 97 | 1011.5 | |
| 20260506174523 | 64 | 0.0 | 0.0 | 0.00 | 0.78 | 0.74 | 93 | 1011.5 | |
| 20260506173518 | 66 | 0.0 | 0.0 | 0.00 | 0.78 | 0.74 | 92 | 1011.5 | |
| 20260506172517 | 66 | 0.0 | 0.0 | 0.00 | 0.78 | 0.74 | 90 | 1011.5 | |
| 20260506171540 | 66 | 293 | 0.0 | 1.7 | 0.00 | 0.78 | 0.74 | 90 | 1011.5 |
| 20260506170515 | 64 | 270 | 0.0 | 3.5 | 0.00 | 0.78 | 0.74 | 91 | 1011.5 |
| 20260506165516 | 66 | 280 | 0.0 | 3.5 | 0.00 | 0.78 | 0.74 | 88 | 1011.5 |
| 20260506164522 | 66 | 234 | 0.0 | 1.7 | 0.00 | 0.78 | 0.74 | 89 | 1011.5 |
| 20260506163516 | 66 | 282 | 0.9 | 7.0 | 0.00 | 0.78 | 0.74 | 87 | 1011.5 |
| 20260506162544 | 65 | 250 | 0.9 | 7.0 | 0.00 | 0.78 | 0.74 | 90 | 1011.5 |
| 20260506161521 | 64 | 279 | 0.9 | 2.6 | 0.00 | 0.78 | 0.74 | 89 | 1011.3 |
| 20260506160536 | 64 | 270 | 0.0 | 9.6 | 0.00 | 0.78 | 0.74 | 90 | 1011.4 |
| 20260506155543 | 64 | 78 | 0.0 | 3.5 | 0.00 | 0.78 | 0.74 | 93 | 1011.5 |
| 20260506154537 | 64 | 0.0 | 0.0 | 0.00 | 0.78 | 0.74 | 92 | 1011.4 | |
| 20260506153522 | 65 | 248 | 0.0 | 4.3 | 0.00 | 0.78 | 0.74 | 92 | 1011.4 |
| 20260506152521 | 65 | 248 | 0.0 | 1.7 | 0.00 | 0.78 | 0.74 | 93 | 1011.4 |
| 20260506151517 | 67 | 158 | 0.0 | 1.7 | 0.00 | 0.78 | 0.74 | 88 | 1011.4 |
| 20260506150521 | 68 | 293 | 0.0 | 2.6 | 0.00 | 0.78 | 0.74 | 88 | 1011.5 |
| 20260506145520 | 68 | 45 | 0.0 | 1.7 | 0.00 | 0.78 | 0.74 | 85 | 1011.5 |
| 20260506144519 | 70 | 213 | 0.9 | 3.5 | 0.00 | 0.78 | 0.74 | 84 | 1011.5 |
| 20260506143522 | 69 | 256 | 1.7 | 7.0 | 0.00 | 0.78 | 0.74 | 86 | 1011.5 |
| 20260506142519 | 68 | 248 | 0.9 | 4.3 | 0.00 | 0.78 | 0.74 | 86 | 1011.5 |
| 20260506141524 | 69 | 272 | 0.9 | 6.1 | 0.00 | 0.78 | 0.74 | 88 | 1011.5 |
| 20260506140516 | 68 | 233 | 0.9 | 5.2 | 0.00 | 0.78 | 0.74 | 87 | 1011.5 |
| 20260506135523 | 69 | 224 | 0.9 | 5.2 | 0.00 | 0.78 | 0.74 | 90 | 1011.5 |
| 20260506134518 | 69 | 209 | 0.9 | 4.3 | 0.00 | 0.78 | 0.74 | 88 | 1011.5 |
| 20260506133524 | 69 | 239 | 1.7 | 9.6 | 0.00 | 0.78 | 0.74 | 89 | 1011.5 |
| 20260506132523 | 69 | 172 | 0.9 | 3.5 | 0.00 | 0.78 | 0.74 | 91 | 1011.5 |
| 20260506131519 | 69 | 238 | 1.7 | 9.6 | 0.00 | 0.78 | 0.74 | 94 | 1011.5 |
| 20260506130524 | 67 | 252 | 2.6 | 9.6 | 0.00 | 0.78 | 0.74 | 95 | 1011.5 |
| 20260506125521 | 66 | 269 | 2.6 | 6.1 | 0.00 | 0.78 | 0.74 | 94 | 1011.5 |
| 20260506124518 | 67 | 277 | 2.6 | 6.1 | 0.00 | 0.78 | 0.74 | 92 | 1011.5 |
| 20260506123522 | 68 | 181 | 0.9 | 2.6 | 0.00 | 0.78 | 0.74 | 96 | 1011.5 |
| 20260506122658 | 67 | 217 | 0.9 | 1.7 | 0.00 | 0.78 | 0.74 | 96 | 1011.5 |
| 20260506121523 | 66 | 281 | 0.9 | 4.3 | 0.00 | 0.78 | 0.74 | 97 | 1011.5 |
| 20260506120519 | 67 | 273 | 0.9 | 6.1 | 0.00 | 0.78 | 0.74 | 97 | 1011.6 |
| 20260506115536 | 67 | 150 | 0.9 | 2.6 | 0.00 | 0.78 | 0.74 | 97 | 1011.6 |
| 20260506114522 | 67 | 237 | 0.9 | 3.5 | 0.00 | 0.78 | 0.74 | 97 | 1012.2 |
| 20260506113517 | 65 | 277 | 0.9 | 5.2 | 0.00 | 0.78 | 0.74 | 97 | 1012.0 |
| 20260506112516 | 65 | 283 | 0.9 | 4.3 | 0.00 | 0.78 | 0.74 | 97 | 1012.5 |
| 20260506111521 | 65 | 219 | 0.9 | 2.6 | 0.00 | 0.78 | 0.74 | 97 | 1012.4 |
| 20260506110524 | 66 | 277 | 0.9 | 4.3 | 0.00 | 0.78 | 0.74 | 97 | 1012.5 |
| 20260506105526 | 67 | 0.0 | 0.0 | 0.00 | 0.78 | 0.74 | 97 | 1012.5 | |
| 20260506104522 | 65 | 203 | 0.0 | 1.7 | 0.00 | 0.78 | 0.74 | 97 | 1012.5 |
| 20260506103547 | 63 | 214 | 0.9 | 6.1 | 0.00 | 0.78 | 0.74 | 97 | 1012.5 |
| 20260506102521 | 62 | 293 | 0.0 | 4.3 | 0.00 | 0.78 | 0.74 | 97 | 1012.5 |
| 20260506101516 | 61 | 291 | 0.9 | 5.2 | 0.00 | 0.78 | 0.74 | 97 | 1012.5 |
| 20260506100543 | 61 | 293 | 0.0 | 3.5 | 0.00 | 0.78 | 0.74 | 97 | 1012.5 |
| 20260506095516 | 60 | 282 | 0.9 | 3.5 | 0.00 | 0.78 | 0.74 | 97 | 1012.5 |
| 20260506094515 | 60 | 293 | 0.0 | 2.6 | 0.00 | 0.78 | 0.74 | 97 | 1012.5 |
| 20260506093523 | 59 | 154 | 0.9 | 3.5 | 0.00 | 0.78 | 0.74 | 97 | 1012.5 |
| 20260506092516 | 59 | 0.0 | 0.0 | 0.00 | 0.78 | 0.74 | 97 | 1012.5 | |
| 20260506091521 | 59 | 293 | 0.0 | 2.6 | 0.00 | 0.78 | 0.74 | 97 | 1012.4 |
| 20260506090517 | 58 | 90 | 0.0 | 1.7 | 0.00 | 0.78 | 0.74 | 97 | 1012.2 |
| 20260506085545 | 58 | 0.0 | 1.7 | 0.00 | 0.78 | 0.74 | 97 | 1012.4 | |
| 20260506084515 | 56 | 296 | 0.9 | 5.2 | 0.00 | 0.78 | 0.74 | 97 | 1011.5 |
| 20260506083519 | 56 | 0.0 | 0.0 | 0.00 | 0.78 | 0.74 | 97 | 1011.7 | |
| 20260506082520 | 56 | 0.0 | 0.0 | 0.00 | 0.78 | 0.74 | 97 | 1011.8 | |
| 20260506081521 | 55 | 0.0 | 0.0 | 0.00 | 0.78 | 0.74 | 97 | 1011.5 | |
| 20260506080516 | 56 | 280 | 0.0 | 5.2 | 0.00 | 0.78 | 0.74 | 97 | 1011.5 |
| 20260506072521 | 51 | 0.0 | 0.0 | 0.00 | 0.78 | 0.74 | 87 | 1011.5 | |
| 20260506071539 | 50 | 0.0 | 0.0 | 0.00 | 0.78 | 0.74 | 81 | 1011.5 | |
| 20260506070522 | 50 | 0.0 | 0.0 | 0.00 | 0.78 | 0.74 | 78 | 1011.5 | |
| 20260506061525 | 48 | 0.0 | 0.0 | 0.08 | 0.82 | 0.74 | 36 | 1011.5 | |
| 20260506060519 | 47 | 0.0 | 0.0 | 0.08 | 0.82 | 0.74 | 35 | 1011.5 | |
| 20260506050525 | 47 | 0.0 | 0.0 | 0.04 | 0.74 | 0.66 | 37 | 1010.6 | |
| 20260506044520 | 46 | 0.0 | 0.0 | 0.00 | 0.70 | 0.62 | 35 | 1010.5 | |
| 20260506043524 | 45 | 0.0 | 0.0 | 0.00 | 0.74 | 0.62 | 37 | 1010.5 | |
| 20260506042522 | 45 | 0.0 | 0.0 | 0.00 | 0.87 | 0.62 | 37 | 1010.5 | |
| 20260506041537 | 45 | 0.0 | 0.0 | 0.00 | 0.87 | 0.62 | 37 | 1010.9 | |
| 20260506040520 | 45 | 0.0 | 0.0 | 0.00 | 0.87 | 0.62 | 38 | 1010.7 | |
| 20260506035519 | 45 | 0.0 | 0.0 | 0.00 | 0.87 | 0.62 | 38 | 1010.8 | |
| 20260506034522 | 45 | 0.0 | 0.0 | 0.00 | 0.87 | 0.62 | 38 | 1011.1 | |
| 20260506033518 | 45 | 0.0 | 0.0 | 0.00 | 0.87 | 0.62 | 40 | 1011.1 | |
| 20260506032515 | 46 | 0.0 | 0.0 | 0.04 | 0.87 | 0.62 | 41 | 1011.3 | |
| 20260506031525 | 46 | 0.0 | 0.0 | 0.04 | 0.87 | 0.62 | 43 | 1011.5 | |
| 20260506030520 | 47 | 0.0 | 0.0 | 0.04 | 0.91 | 0.62 | 45 | 1011.5 | |
| 20260506025525 | 47 | 0.0 | 0.0 | 0.12 | 0.91 | 0.62 | 46 | 1011.5 | |
| 20260506024523 | 47 | 0.0 | 0.0 | 0.21 | 0.91 | 0.62 | 47 | 1011.5 | |
| 20260506023516 | 47 | 0.0 | 0.0 | 0.25 | 0.91 | 0.62 | 48 | 1011.5 | |
| 20260506022523 | 47 | 0.0 | 0.0 | 0.21 | 0.87 | 0.58 | 53 | 1011.5 | |
| 20260506021521 | 47 | 0.0 | 0.0 | 0.21 | 0.87 | 0.58 | 58 | 1011.5 | |
| 20260506020517 | 47 | 0.0 | 0.0 | 0.21 | 0.87 | 0.58 | 62 | 1011.5 | |
| 20260506015522 | 48 | 0.0 | 0.0 | 0.12 | 0.78 | 0.50 | 77 | 1011.5 | |
| 20260506014519 | 48 | 0.0 | 0.0 | 0.04 | 0.74 | 0.41 | 82 | 1011.4 | |
| 20260506013523 | 48 | 203 | 0.0 | 3.5 | 0.00 | 0.70 | 0.37 | 88 | 1010.5 |
| 20260506012540 | 48 | 203 | 0.9 | 3.5 | 0.00 | 0.74 | 0.37 | 93 | 1010.6 |
| 20260506011520 | 47 | 0.0 | 0.0 | 0.00 | 0.83 | 0.37 | 84 | 1011.3 | |
| 20260506010544 | 47 | 0.0 | 0.0 | 0.00 | 0.87 | 0.37 | 89 | 1011.5 | |
| 20260506005520 | 48 | 0.0 | 0.0 | 0.00 | 0.91 | 0.37 | 96 | 1011.5 | |
| 20260506004518 | 48 | 158 | 0.0 | 1.7 | 0.00 | 0.95 | 0.37 | 97 | 1011.5 |
| 20260506003522 | 48 | 157 | 0.9 | 6.1 | 0.00 | 0.99 | 0.37 | 97 | 1011.5 |
| 20260506002537 | 48 | 48 | 1.7 | 5.2 | 0.00 | 1.03 | 0.37 | 97 | 1011.5 |
| 20260506001540 | 48 | 18 | 3.5 | 8.7 | 0.00 | 1.03 | 0.37 | 97 | 1011.5 |
| 20260506000518 | 48 | 13 | 5.2 | 13.9 | 0.00 | 1.08 | 0.37 | 97 | 1012.2 |
| 20260505235525 | 47 | 21 | 4.3 | 9.6 | 0.04 | 1.12 | 0.37 | 97 | 1012.5 |
| 20260505234518 | 47 | 32 | 2.6 | 7.0 | 0.12 | 1.12 | 0.37 | 97 | 1012.5 |
| 20260505233517 | 47 | 12 | 3.5 | 7.8 | 0.17 | 1.12 | 0.37 | 97 | 1012.5 |
| 20260505232524 | 47 | 339 | 1.7 | 7.0 | 0.21 | 1.12 | 0.37 | 95 | 1012.5 |
| 20260505231517 | 47 | 14 | 1.7 | 6.1 | 0.25 | 1.12 | 0.37 | 91 | 1012.8 |
| 20260505230516 | 47 | 31 | 0.9 | 2.6 | 0.29 | 1.12 | 0.37 | 86 | 1013.5 |
| 20260505225523 | 48 | 20 | 0.0 | 1.7 | 0.33 | 1.07 | 0.33 | 79 | 1013.5 |
| 20260505224525 | 49 | 0.0 | 0.0 | 0.25 | 0.99 | 0.25 | 69 | 1013.9 | |
| 20260505223522 | 49 | 54 | 0.0 | 3.5 | 0.25 | 0.95 | 0.21 | 68 | 1014.5 |
| 20260505222520 | 49 | 75 | 0.0 | 1.7 | 0.21 | 0.91 | 0.17 | 75 | 1014.5 |
| 20260505221544 | 49 | 113 | 0.0 | 1.7 | 0.16 | 0.87 | 0.12 | 72 | 1014.5 |
| 20260505220522 | 50 | 225 | 0.0 | 2.6 | 0.12 | 0.83 | 0.08 | 68 | 1014.0 |
| 20260505215517 | 50 | 0.0 | 0.0 | 0.04 | 0.74 | 0.74 | 67 | 1014.5 | |
| 20260505214522 | 50 | 225 | 0.9 | 2.6 | 0.04 | 0.74 | 0.74 | 67 | 1014.5 |
| 20260505213520 | 50 | 0.0 | 0.0 | 0.00 | 0.70 | 0.70 | 59 | 1014.5 | |
| 20260505212518 | 50 | 0.0 | 0.0 | 0.00 | 0.70 | 0.70 | 60 | 1014.5 | |
| 20260505211520 | 50 | 0.0 | 0.0 | 0.00 | 0.70 | 0.70 | 57 | 1014.5 | |
| 20260505210518 | 49 | 0.0 | 0.0 | 0.00 | 0.70 | 0.70 | 58 | 1014.5 | |
| 20260505205516 | 49 | 0.0 | 0.0 | 0.00 | 0.70 | 0.70 | 54 | 1014.5 | |
| 20260505204519 | 49 | 0.0 | 0.0 | 0.00 | 0.70 | 0.70 | 50 | 1014.5 | |
| 20260505203558 | 49 | 0.0 | 0.0 | 0.00 | 0.74 | 0.70 | 51 | 1014.5 | |
| 20260505202515 | 49 | 0.0 | 0.0 | 0.00 | 0.74 | 0.70 | 52 | 1014.5 | |
| 20260505201517 | 49 | 0.0 | 0.0 | 0.00 | 0.74 | 0.70 | 56 | 1014.5 | |
| 20260505200525 | 49 | 0.0 | 0.0 | 0.00 | 0.79 | 0.70 | 60 | 1014.5 | |
| 20260505195522 | 48 | 0.0 | 0.0 | 0.00 | 0.79 | 0.70 | 64 | 1014.5 |